Temp
72 72 72 71 71 72 74 75 75 75 75 75 75 75 75 75 75 75 75 75 73 72 72 72 73 73 74 72 73 74 74 74 74 74 73 74 74 73 73 73 73 72 73 73 73 73 73 73 73 73 73 72 71 67 66 66 67 68 68 69 69 72
72 72 72 71 72 72 73 74 72 73 73 74 74 75 74 73 74 72 75 73 71 72 70 70 71 74 72 73 73 74 74 74 74 73 73 73 73 73 73 73 72 72 72 72 73 71 72 73 73 73 72 71 67 66 66 66 67 68 68 69 70 73
72 72 72 71 72 72 72 71 70 71 73 73 73 73 71 72 70 71 70 70 71 70 70 70 71 72 72 74 73 74 74 74 74 74 73 73 73 73 72 72 72 71 71 71 69 68 69 69 71 72 70 67 66 66 66 66 67 67 67 69 69 74
72 72 71 71 71 71 70 70 70 70 70 70 70 70 70 70 69 69 69 69 69 70 70 70 74 74 74 72 72 73 74 74 74 74 73 71 72 73 73 72 70 69 68 68 68 68 68 67 66 65 65 66 66 66 66 66 67 67 67 70 69 74
72 72 71 71 71 70 71 71 71 71 70 70 69 69 69 68 68 68 69 69 69 70 69 69 70 70 70 70 69 70 71 69 68 67 68 65 65 66 66 65 65 66 66 67 67 67 67 66 66 66 66 66 66 66 67 67 67 67 68 69 71 73
72 71 71 71 71 71 71 70 70 71 71 70 70 68 68 68 68 68 68 69 69 69 69 69 69 69 70 69 69 68 67 67 65 65 66 64 64 64 63 64 65 65 65 66 67 67 67 67 66 65 66 66 66 66 66 67 67 67 68 69 72 74
71 71 71 71 71 71 71 71 71 70 70 70 69 68 67 67 67 67 67 68 67 67 68 69 69 69 69 69 68 67 66 66 65 65 65 64 63 63 62 63 64 64 65 67 67 67 66 66 66 67 66 67 67 67 65 66 67 67 68 69 72 73
71 71 70 71 71 71 70 70 71 71 70 70 69 68 68 66 66 66 66 67 67 67 68 68 69 69 69 69 68 67 66 66 65 65 64 64 63 62 62 62 64 64 66 67 68 67 67 67 66 67 67 66 66 66 65 65 66 67 68 69 71 73
70 71 70 70 70 70 70 70 70 69 69 71 68 67 67 66 65 66 66 67 67 67 68 69 68 69 68 68 68 67 66 65 65 65 64 63 63 63 62 63 64 64 64 65 66 66 67 67 66 66 66 66 66 66 66 66 67 67 67 68 68 72
70 70 70 70 69 69 69 69 69 69 69 69 67 67 66 64 64 65 65 66 67 67 67 68 68 68 68 67 67 66 66 65 65 65 64 64 63 63 63 63 63 64 65 65 66 67 67 66 66 66 66 66 66 66 65 66 66 66 66 67 68 71
69 69 70 69 68 68 68 69 69 69 69 68 67 66 66 65 65 65 66 66 67 67 67 67 68 68 68 67 67 67 66 65 65 64 64 64 63 64 63 64 64 64 64 64 65 67 67 66 66 67 67 67 65 66 66 66 66 66 66 66 67 69
69 69 69 68 68 67 68 68 68 68 68 68 67 65 65 65 66 65 66 66 67 67 67 67 68 68 67 67 67 66 65 65 65 64 64 64 64 64 63 63 64 64 64 65 65 65 66 66 65 66 67 67 66 66 66 66 66 66 65 65 66 67
69 69 68 67 67 67 66 67 67 67 67 68 67 66 65 65 65 65 66 66 67 67 67 67 68 68 68 67 66 66 65 66 66 65 65 65 65 64 65 65 64 64 64 65 65 64 65 65 65 65 66 65 65 65 66 66 65 65 65 65 66 66
68 68 68 67 67 66 66 66 66 65 66 67 67 66 65 65 66 66 66 66 67 67 67 67 67 67 68 66 66 66 66 65 66 65 65 65 64 64 64 64 64 65 65 64 64 64 65 64 65 66 65 65 65 65 65 65 65 65 65 65 65 66
68 67 67 66 66 66 65 65 65 64 65 66 67 66 66 65 65 66 66 66 67 67 67 66 67 67 66 65 65 65 65 65 65 65 65 65 65 64 64 64 64 63 63 63 64 64 65 65 65 65 65 66 66 65 65 65 65 65 65 65 65 65
67 67 66 66 66 65 65 65 65 66 65 66 66 66 66 66 66 66 66 66 66 67 66 66 66 66 65 65 65 65 65 64 65 65 65 65 65 64 64 64 64 65 63 63 64 64 65 65 65 65 66 66 66 66 65 65 65 65 65 65 65 65
66 66 66 66 65 65 64 65 64 65 64 65 65 65 66 66 66 66 66 65 65 66 66 65 65 65 65 65 65 65 64 64 65 65 65 65 65 65 65 64 63 65 65 63 64 64 64 65 65 65 65 65 66 66 65 65 64 64 65 64 64 64
66 66 66 65 65 64 64 64 64 64 66 65 65 65 66 66 66 66 66 65 65 65 65 65 65 65 65 65 65 65 64 64 65 65 64 64 64 64 64 65 62 62 64 64 63 63 64 64 65 64 65 65 65 65 65 65 64 64 64 64 64 65
66 65 65 64 64 63 64 64 64 64 64 65 66 66 66 66 66 66 65 66 65 65 66 65 65 65 64 65 64 64 64 64 65 65 64 64 63 64 64 64 62 62 63 64 64 64 64 64 64 64 64 64 65 64 64 64 64 64 63 63 64 64
65 65 64 64 63 63 64 64 63 63 64 65 65 65 66 66 66 66 66 66 66 65 66 66 65 65 65 65 64 64 64 64 65 64 64 63 63 63 63 62 62 62 63 64 65 65 65 64 63 63 63 63 64 64 64 64 64 63 64 64 65 64
64 64 64 63 63 63 63 63 64 63 63 64 65 65 65 66 66 66 66 66 65 65 66 65 65 65 64 65 64 64 64 64 64 65 64 64 63 63 63 63 62 63 63 62 62 64 65 65 63 61 62 62 62 63 64 64 63 63 63 63 63 63
64 63 63 63 63 63 63 63 64 64 64 65 65 64 65 66 66 66 66 66 66 65 65 65 65 65 65 64 64 64 64 64 64 64 64 63 63 63 63 62 63 62 64 62 61 64 64 65 61 60 59 59 60 62 63 63 63 63 63 62 62 62
64 64 63 63 63 63 63 64 64 63 65 64 66 66 66 66 65 65 65 66 66 66 65 65 65 65 65 64 64 64 64 64 64 65 63 62 63 62 62 62 63 62 61 63 62 64 63 62 60 62 62 60 57 57 60 61 63 63 63 63 63 63
64 64 63 64 65 64 64 64 65 65 65 65 64 66 66 65 64 64 64 65 65 65 65 65 65 65 65 65 65 64 64 64 64 65 64 62 62 62 62 62 63 63 63 60 61 62 62 61 64 62 57 57 58 59 55 57 58 61 63 63 63 63
63 64 64 65 65 64 64 64 64 64 65 64 65 65 64 63 63 64 64 64 64 65 65 65 65 65 65 64 64 64 64 64 64 63 64 63 62 62 62 63 63 63 63 61 60 61 61 61 64 63 61 57 55 55 57 58 59 59 62 62 63 63
64 64 64 64 64 64 64 63 62 62 62 62 62 63 63 62 61 62 63 64 65 65 65 65 65 65 65 65 64 64 64 63 63 63 63 64 63 62 62 62 63 63 62 63 62 61 60 62 62 60 59 61 62 58 57 59 60 54 60 62 62 63
64 63 64 64 65 64 63 64 63 63 63 62 62 63 65 64 62 63 63 63 64 65 65 65 65 65 65 65 64 64 64 64 64 63 64 63 62 62 62 63 63 63 63 63 62 60 60 60 61 60 60 60 60 58 62 60 56 58 55 59 61 61
63 63 62 63 64 64 63 63 63 62 62 62 63 63 64 64 64 64 63 63 64 64 65 65 65 65 65 65 64 64 64 63 63 63 64 63 63 62 62 63 64 63 62 63 63 62 61 61 60 60 60 59 59 60 61 58 63 60 58 55 57 60
63 63 62 63 63 63 64 63 63 62 61 62 63 63 64 64 63 63 63 63 64 64 64 65 65 64 64 64 65 64 63 63 63 63 64 63 63 63 62 62 62 62 62 62 63 63 62 61 61 59 58 57 59 60 60 60 61 59 59 56 56 57
62 61 62 63 63 64 64 64 62 62 61 61 62 63 64 63 63 63 62 62 63 64 63 63 64 64 64 64 64 64 63 63 63 63 64 63 63 62 62 62 63 63 62 62 62 62 63 62 62 60 61 59 59 58 59 59 59 59 60 60 57 56
62 62 63 62 63 63 63 63 63 62 62 61 62 63 63 62 62 62 62 62 62 63 63 63 63 63 64 64 64 64 63 63 63 64 64 63 63 63 63 63 63 63 62 62 61 61 62 61 61 61 60 61 61 62 60 58 59 59 58 57 57 57
62 63 63 63 62 62 62 63 63 62 61 62 63 63 63 62 62 62 62 62 62 62 62 62 62 62 63 63 64 63 63 63 63 63 63 63 63 64 63 63 62 62 62 62 62 62 61 61 61 61 60 60 61 62 60 61 61 61 59 59 60 58
62 63 63 63 63 62 61 61 62 62 62 62 62 63 63 63 63 63 63 62 62 61 62 61 61 62 62 63 64 63 62 62 62 63 63 63 63 63 62 62 62 62 62 62 62 62 62 61 61 61 61 60 61 61 61 60 61 60 60 61 61 58
62 63 64 63 63 62 61 61 61 61 62 62 62 62 63 63 63 64 64 63 63 62 62 62 62 63 63 63 63 64 63 63 63 63 64 63 63 63 63 63 63 62 62 62 62 62 62 62 62 62 62 60 60 61 60 61 61 61 60 60 59 59
62 63 63 63 63 62 61 61 61 61 61 62 62 61 62 63 63 63 64 64 64 64 63 64 63 63 62 62 63 63 63 63 63 63 63 63 63 63 62 63 63 62 62 62 62 62 61 61 61 61 61 61 60 60 60 61 62 62 63 62 61 61
62 61 62 63 62 62 62 61 61 60 60 61 62 62 61 62 63 64 64 64 63 63 64 64 64 63 62 62 62 62 63 62 62 62 63 63 62 62 62 62 62 62 62 62 61 61 61 61 62 61 61 60 61 60 60 61 62 62 63 63 63 62
61 60 60 61 62 62 62 61 61 60 60 61 62 62 61 61 62 63 63 63 63 63 63 63 63 62 61 62 62 62 62 62 61 61 62 62 62 62 62 62 62 61 61 62 62 62 60 61 61 60 60 60 61 60 60 61 62 62 62 62 63 63
MSLP
1014.04 1014.16 1014.32 1014.48 1014.60 1014.64 1014.72 1014.84 1015.00 1015.16 1015.36 1015.60 1015.80 1016.00 1016.16 1016.28 1016.44 1016.60 1016.76 1016.92 1017.16 1017.36 1017.44 1017.52 1017.64 1017.80 1018.00 1018.44 1018.12 1018.16 1018.28 1018.28 1018.36 1018.44 1018.48 1018.52 1018.48 1018.48 1018.56 1018.68 1018.76 1018.76 1018.72 1018.72 1018.80 1018.96 1019.08 1019.28 1019.48 1019.68 1019.84 1020.04 1020.24 1020.44 1020.56 1020.68 1020.80 1020.88 1020.92 1020.92 1020.88 1020.76
1014.12 1014.20 1014.28 1014.40 1014.48 1014.56 1014.64 1014.80 1015.08 1015.32 1015.56 1015.76 1015.96 1016.12 1016.32 1016.48 1016.60 1016.76 1016.88 1017.12 1017.28 1017.40 1017.52 1017.60 1017.72 1017.64 1017.68 1018.36 1018.36 1018.28 1018.36 1018.32 1018.44 1018.56 1018.60 1018.60 1018.60 1018.60 1018.64 1018.76 1018.84 1018.88 1018.84 1018.88 1018.96 1019.08 1019.28 1019.44 1019.64 1019.88 1020.08 1020.28 1020.52 1020.64 1020.76 1020.88 1021.00 1021.08 1021.12 1021.08 1021.04 1021.00
1014.12 1014.12 1014.24 1014.36 1014.44 1014.60 1014.76 1015.00 1015.28 1015.48 1015.68 1015.92 1016.08 1016.28 1016.48 1016.56 1016.76 1016.92 1017.08 1017.20 1017.28 1017.48 1017.60 1017.72 1017.76 1017.76 1017.56 1018.16 1018.44 1018.40 1018.44 1018.44 1018.52 1018.60 1018.68 1018.72 1018.72 1018.68 1018.72 1018.84 1018.92 1019.00 1019.00 1019.08 1019.16 1019.28 1019.44 1019.64 1019.88 1020.08 1020.32 1020.52 1020.72 1020.80 1020.88 1020.96 1021.08 1021.20 1021.32 1021.24 1021.20 1021.12
1013.96 1014.04 1014.20 1014.40 1014.56 1014.76 1015.00 1015.16 1015.40 1015.56 1015.76 1016.00 1016.20 1016.36 1016.52 1016.64 1016.84 1017.00 1017.20 1017.32 1017.44 1017.60 1017.72 1017.80 1017.76 1017.76 1017.72 1018.08 1018.44 1018.44 1018.48 1018.52 1018.56 1018.68 1018.76 1018.80 1018.80 1018.76 1018.84 1018.92 1019.04 1019.12 1019.20 1019.32 1019.40 1019.52 1019.64 1019.88 1020.16 1020.40 1020.60 1020.72 1020.84 1020.92 1020.96 1021.04 1021.16 1021.24 1021.28 1021.28 1021.28 1021.24
1013.88 1014.08 1014.28 1014.44 1014.64 1014.88 1015.00 1015.20 1015.36 1015.56 1015.72 1015.92 1016.20 1016.44 1016.60 1016.76 1016.92 1017.12 1017.28 1017.44 1017.60 1017.72 1017.92 1018.00 1018.04 1018.08 1018.12 1018.32 1018.52 1018.60 1018.60 1018.64 1018.68 1018.84 1018.88 1019.04 1019.04 1019.04 1019.08 1019.20 1019.28 1019.32 1019.44 1019.48 1019.64 1019.76 1019.84 1020.12 1020.36 1020.56 1020.68 1020.80 1020.92 1021.00 1021.08 1021.12 1021.20 1021.24 1021.28 1021.28 1021.32 1021.32
1013.92 1014.04 1014.20 1014.32 1014.52 1014.68 1014.84 1015.16 1015.40 1015.60 1015.88 1016.16 1016.36 1016.56 1016.64 1016.84 1017.04 1017.24 1017.40 1017.56 1017.64 1017.92 1018.16 1018.20 1018.28 1018.28 1018.32 1018.44 1018.68 1018.72 1018.72 1018.72 1018.80 1018.96 1019.00 1019.12 1019.16 1019.16 1019.24 1019.32 1019.36 1019.48 1019.64 1019.64 1019.76 1019.92 1020.04 1020.12 1020.40 1020.60 1020.76 1020.88 1021.00 1021.08 1021.16 1021.24 1021.28 1021.36 1021.36 1021.32 1021.36 1021.40
1014.00 1014.08 1014.20 1014.28 1014.44 1014.64 1014.88 1015.04 1015.40 1015.76 1016.12 1016.44 1016.72 1016.92 1017.04 1017.08 1017.20 1017.36 1017.44 1017.48 1017.76 1018.12 1018.24 1018.28 1018.36 1018.40 1018.52 1018.56 1018.76 1018.80 1018.80 1018.76 1018.84 1018.96 1019.04 1019.16 1019.24 1019.28 1019.32 1019.44 1019.48 1019.60 1019.68 1019.80 1020.00 1020.12 1020.20 1020.32 1020.44 1020.64 1020.88 1021.00 1021.08 1021.20 1021.32 1021.40 1021.48 1021.52 1021.56 1021.56 1021.52 1021.60
1014.04 1014.16 1014.32 1014.40 1014.52 1014.68 1014.84 1015.20 1015.48 1015.76 1016.12 1016.36 1016.76 1017.08 1017.24 1017.36 1017.40 1017.48 1017.52 1017.68 1017.92 1018.04 1018.12 1018.28 1018.40 1018.48 1018.56 1018.64 1018.84 1018.84 1018.80 1018.84 1018.80 1018.92 1019.04 1019.12 1019.24 1019.36 1019.40 1019.48 1019.56 1019.64 1019.72 1019.88 1020.08 1020.28 1020.36 1020.48 1020.64 1020.72 1020.96 1021.12 1021.24 1021.40 1021.52 1021.64 1021.68 1021.72 1021.76 1021.76 1021.72 1021.80
1014.00 1014.12 1014.20 1014.20 1014.44 1014.68 1014.84 1015.16 1015.44 1015.80 1016.12 1016.36 1016.76 1016.96 1017.00 1017.20 1017.56 1017.60 1017.68 1017.72 1017.72 1017.76 1018.04 1018.36 1018.44 1018.48 1018.52 1018.72 1018.84 1018.88 1018.88 1018.88 1018.88 1018.88 1019.00 1019.16 1019.20 1019.36 1019.44 1019.48 1019.56 1019.68 1019.76 1019.92 1020.12 1020.36 1020.44 1020.60 1020.76 1020.88 1021.04 1021.28 1021.44 1021.56 1021.64 1021.72 1021.80 1021.88 1021.92 1021.96 1021.92 1021.92
1014.04 1014.20 1014.24 1014.32 1014.48 1014.60 1014.68 1015.04 1015.40 1015.80 1016.12 1016.48 1016.96 1016.96 1016.84 1017.12 1017.60 1017.68 1017.84 1017.92 1017.84 1017.76 1017.72 1018.20 1018.40 1018.44 1018.52 1018.72 1018.80 1018.88 1018.88 1018.92 1018.92 1018.88 1018.92 1019.08 1019.24 1019.28 1019.40 1019.48 1019.56 1019.72 1019.88 1020.00 1020.16 1020.32 1020.44 1020.68 1020.84 1020.96 1021.16 1021.32 1021.48 1021.60 1021.64 1021.76 1021.88 1022.00 1022.04 1022.04 1022.00 1022.00
1014.20 1014.20 1014.28 1014.40 1014.48 1014.64 1014.84 1015.16 1015.56 1015.84 1016.08 1016.48 1016.80 1016.72 1016.60 1017.04 1017.40 1017.48 1017.52 1017.60 1017.76 1017.80 1017.68 1018.00 1018.24 1018.32 1018.36 1018.52 1018.72 1018.84 1018.88 1018.88 1018.96 1018.88 1018.84 1019.00 1019.20 1019.28 1019.32 1019.36 1019.44 1019.60 1019.92 1020.04 1020.16 1020.24 1020.44 1020.72 1020.88 1021.04 1021.16 1021.28 1021.48 1021.60 1021.76 1021.84 1021.96 1022.04 1022.08 1022.12 1022.12 1022.16
1014.04 1014.08 1014.32 1014.52 1014.68 1014.92 1015.08 1015.16 1015.52 1015.80 1016.12 1016.32 1016.48 1016.48 1016.48 1016.76 1017.00 1017.00 1016.76 1016.92 1017.24 1017.48 1017.56 1017.88 1018.12 1018.16 1018.16 1018.36 1018.64 1018.80 1018.84 1018.92 1018.88 1018.84 1018.84 1019.00 1019.16 1019.28 1019.28 1019.36 1019.48 1019.60 1019.80 1019.96 1020.16 1020.40 1020.52 1020.68 1020.96 1021.04 1021.16 1021.36 1021.52 1021.68 1021.84 1021.88 1021.96 1022.08 1022.16 1022.20 1022.24 1022.32
1014.00 1014.20 1014.44 1014.68 1014.84 1015.04 1015.16 1015.20 1015.48 1015.68 1015.92 1016.20 1016.40 1016.28 1016.12 1016.28 1016.40 1016.84 1017.12 1017.04 1016.96 1017.12 1017.32 1017.68 1017.92 1017.96 1018.00 1018.20 1018.48 1018.68 1018.84 1018.84 1018.76 1018.80 1018.84 1019.00 1019.16 1019.24 1019.28 1019.40 1019.52 1019.64 1019.84 1020.04 1020.28 1020.56 1020.68 1020.88 1021.08 1021.20 1021.28 1021.48 1021.56 1021.76 1021.84 1021.92 1022.08 1022.20 1022.28 1022.32 1022.36 1022.40
1014.08 1014.36 1014.56 1014.72 1014.84 1015.04 1015.12 1015.24 1015.40 1015.72 1016.00 1016.24 1016.52 1016.52 1016.24 1016.20 1016.20 1016.56 1016.96 1017.08 1017.04 1017.12 1017.24 1017.48 1017.72 1017.92 1018.00 1018.32 1018.60 1018.64 1018.72 1018.76 1018.72 1018.72 1018.84 1019.04 1019.20 1019.24 1019.36 1019.48 1019.64 1019.72 1020.04 1020.20 1020.48 1020.68 1020.80 1021.08 1021.28 1021.32 1021.44 1021.56 1021.68 1021.84 1021.92 1022.08 1022.20 1022.28 1022.32 1022.44 1022.48 1022.52
1014.24 1014.44 1014.52 1014.68 1014.72 1014.88 1015.00 1015.12 1015.36 1015.80 1016.20 1016.24 1016.28 1016.44 1016.44 1016.28 1016.28 1016.44 1016.72 1016.92 1016.92 1017.00 1017.12 1017.32 1017.52 1017.84 1018.04 1018.36 1018.96 1018.92 1018.72 1018.60 1018.60 1018.72 1018.84 1018.96 1019.08 1019.20 1019.32 1019.52 1019.64 1019.92 1020.24 1020.48 1020.64 1020.80 1020.92 1021.12 1021.32 1021.56 1021.64 1021.68 1021.84 1021.96 1022.04 1022.20 1022.28 1022.36 1022.44 1022.52 1022.56 1022.68
1014.28 1014.36 1014.40 1014.48 1014.56 1014.72 1014.92 1015.04 1015.28 1015.60 1015.84 1015.88 1016.00 1016.36 1016.44 1016.36 1016.36 1016.44 1016.60 1016.76 1016.84 1016.96 1017.12 1017.24 1017.44 1017.72 1018.16 1018.36 1018.80 1019.16 1018.88 1018.56 1018.56 1018.68 1018.80 1018.92 1019.00 1019.20 1019.36 1019.60 1019.72 1019.80 1020.28 1020.76 1020.76 1021.00 1021.04 1021.20 1021.36 1021.60 1021.72 1021.84 1021.92 1022.04 1022.20 1022.36 1022.44 1022.52 1022.56 1022.60 1022.76 1022.84
1014.32 1014.36 1014.40 1014.40 1014.52 1014.68 1014.88 1014.96 1015.04 1015.28 1015.92 1016.08 1016.08 1016.36 1016.44 1016.52 1016.64 1016.60 1016.60 1016.76 1016.92 1017.04 1017.20 1017.36 1017.56 1017.72 1018.04 1018.28 1018.48 1019.00 1019.12 1018.76 1018.56 1018.68 1018.76 1018.84 1018.96 1019.04 1019.32 1019.68 1019.92 1020.00 1020.00 1020.56 1020.88 1021.08 1021.20 1021.28 1021.48 1021.68 1021.80 1021.96 1022.04 1022.12 1022.32 1022.48 1022.56 1022.64 1022.68 1022.80 1022.92 1022.96
1014.28 1014.28 1014.28 1014.40 1014.52 1014.68 1014.68 1014.76 1014.96 1015.28 1015.60 1015.88 1016.04 1016.24 1016.36 1016.52 1016.76 1016.80 1016.76 1016.92 1017.08 1017.24 1017.36 1017.48 1017.60 1017.80 1017.96 1018.08 1018.24 1018.64 1019.08 1018.96 1018.60 1018.60 1018.68 1018.80 1018.96 1019.08 1019.24 1019.48 1020.04 1020.20 1020.32 1020.44 1020.84 1021.08 1021.28 1021.40 1021.56 1021.76 1021.96 1022.12 1022.16 1022.28 1022.44 1022.52 1022.60 1022.72 1022.88 1023.04 1023.08 1023.08
1014.36 1014.44 1014.48 1014.56 1014.72 1014.88 1015.00 1015.16 1015.16 1015.32 1015.64 1015.84 1016.00 1016.16 1016.32 1016.64 1016.84 1016.92 1016.96 1017.04 1017.32 1017.72 1017.80 1017.80 1017.72 1017.72 1017.88 1018.00 1018.32 1018.48 1018.84 1018.96 1018.48 1018.48 1018.60 1018.80 1019.04 1019.20 1019.44 1019.64 1019.92 1020.40 1020.52 1020.60 1020.72 1021.00 1021.20 1021.40 1021.72 1021.92 1022.12 1022.24 1022.28 1022.40 1022.52 1022.56 1022.68 1022.84 1022.96 1023.08 1023.12 1023.12
1014.48 1014.60 1014.72 1014.88 1015.00 1015.16 1015.24 1015.36 1015.48 1015.56 1015.76 1015.84 1015.92 1016.16 1016.36 1016.64 1016.84 1016.92 1016.92 1017.00 1017.28 1017.68 1017.72 1017.84 1017.72 1017.64 1017.72 1017.92 1018.32 1018.48 1018.84 1018.92 1018.52 1018.44 1018.60 1018.88 1019.12 1019.24 1019.44 1019.84 1020.16 1020.28 1020.68 1020.88 1020.96 1021.08 1021.24 1021.48 1021.84 1022.16 1022.36 1022.40 1022.48 1022.56 1022.64 1022.68 1022.84 1023.00 1023.04 1023.08 1023.12 1023.16
1014.44 1014.56 1014.76 1015.00 1015.20 1015.40 1015.52 1015.92 1015.96 1015.92 1015.84 1015.80 1016.04 1016.24 1016.52 1016.64 1016.80 1016.76 1016.68 1016.60 1016.76 1017.20 1017.44 1017.64 1017.64 1017.48 1017.56 1017.80 1018.12 1018.48 1019.04 1019.16 1018.76 1018.48 1018.52 1018.76 1018.96 1019.20 1019.40 1019.64 1020.08 1020.28 1020.56 1021.04 1021.36 1021.32 1021.36 1021.32 1021.80 1022.44 1022.52 1022.68 1022.80 1022.76 1022.76 1022.84 1023.00 1023.08 1023.16 1023.20 1023.28 1023.40
1014.16 1014.40 1014.56 1014.68 1014.96 1015.52 1015.64 1015.76 1015.84 1015.72 1015.64 1015.76 1016.08 1016.40 1016.68 1016.64 1016.68 1016.64 1016.48 1016.68 1016.88 1017.04 1017.32 1017.60 1017.68 1017.68 1017.64 1017.52 1018.04 1018.68 1018.76 1018.72 1018.52 1018.60 1018.64 1018.84 1019.08 1019.24 1019.52 1019.80 1020.04 1020.60 1020.64 1020.84 1021.32 1021.32 1021.36 1021.36 1022.24 1022.36 1022.72 1022.96 1023.00 1022.96 1022.88 1022.96 1023.12 1023.12 1023.12 1023.24 1023.28 1023.48
1014.20 1014.36 1014.56 1014.64 1014.84 1015.08 1015.08 1014.92 1015.20 1015.48 1015.48 1015.76 1015.76 1016.08 1016.36 1016.60 1016.80 1016.68 1016.52 1016.48 1016.60 1016.96 1017.28 1017.52 1017.56 1017.56 1017.52 1017.44 1017.88 1018.32 1018.16 1018.20 1018.32 1018.52 1018.84 1019.12 1019.24 1019.48 1019.60 1019.80 1019.92 1020.28 1020.96 1021.04 1021.20 1021.32 1021.36 1021.36 1022.08 1022.32 1022.52 1022.96 1023.44 1023.60 1023.40 1023.32 1023.20 1023.20 1023.20 1023.28 1023.24 1023.48
1014.60 1014.60 1014.64 1014.60 1014.64 1014.64 1014.60 1014.84 1015.00 1015.00 1015.12 1015.32 1015.80 1016.00 1016.24 1016.56 1016.92 1016.68 1016.56 1016.60 1016.88 1017.08 1017.48 1017.72 1017.60 1017.40 1017.32 1017.52 1017.72 1017.92 1018.20 1018.12 1018.24 1018.36 1018.56 1019.04 1019.32 1019.52 1019.68 1019.84 1020.00 1020.20 1020.40 1021.16 1021.32 1021.60 1021.48 1021.52 1021.48 1022.00 1023.16 1023.08 1023.20 1023.20 1023.76 1023.64 1023.56 1023.44 1023.28 1023.32 1023.32 1023.44
1014.84 1014.96 1014.96 1014.84 1014.68 1014.56 1014.60 1014.84 1014.92 1015.04 1015.04 1015.32 1015.56 1015.96 1016.36 1016.92 1017.04 1016.88 1016.88 1017.04 1017.32 1017.40 1017.56 1017.84 1017.96 1018.00 1017.84 1017.68 1017.68 1017.76 1018.20 1018.08 1018.20 1018.44 1018.56 1018.88 1019.20 1019.32 1019.44 1019.60 1019.80 1020.08 1020.24 1020.52 1021.24 1021.36 1021.60 1021.56 1021.44 1021.28 1021.68 1022.92 1023.40 1023.52 1023.48 1023.40 1023.44 1023.64 1023.36 1023.40 1023.36 1023.36
1014.68 1014.84 1015.00 1014.96 1014.76 1014.60 1014.52 1014.56 1014.92 1015.12 1015.44 1015.56 1015.92 1016.12 1016.40 1016.68 1016.92 1016.72 1016.64 1016.64 1016.80 1016.84 1016.96 1017.08 1017.36 1017.76 1017.80 1017.64 1017.68 1017.76 1018.08 1018.56 1018.48 1018.56 1018.64 1018.80 1019.08 1019.36 1019.52 1019.68 1019.72 1019.76 1020.16 1020.24 1020.52 1021.24 1021.60 1021.60 1021.56 1021.52 1021.52 1021.32 1021.48 1022.12 1023.04 1023.16 1023.36 1024.12 1023.56 1023.40 1023.36 1023.28
1014.68 1014.76 1014.76 1014.80 1014.72 1014.64 1014.60 1014.52 1014.56 1014.76 1015.00 1015.28 1015.56 1015.68 1015.68 1015.92 1016.20 1015.92 1016.28 1016.60 1016.80 1016.88 1016.96 1017.12 1017.20 1017.32 1017.52 1017.60 1017.88 1018.04 1018.04 1018.20 1018.32 1018.52 1018.64 1018.88 1019.16 1019.32 1019.40 1019.48 1019.64 1019.80 1019.96 1020.24 1020.48 1021.08 1021.32 1021.56 1021.72 1021.72 1021.64 1021.64 1021.60 1021.68 1021.68 1022.64 1023.56 1023.68 1024.04 1023.72 1023.48 1023.44
1014.52 1014.64 1014.68 1014.68 1014.72 1014.68 1014.76 1014.72 1014.72 1014.76 1014.80 1014.96 1015.04 1015.28 1015.44 1015.68 1015.80 1015.68 1015.92 1016.24 1016.32 1016.48 1016.68 1016.88 1017.08 1017.12 1017.36 1017.68 1017.92 1017.96 1018.04 1018.16 1018.28 1018.44 1018.60 1018.80 1019.00 1019.28 1019.44 1019.56 1019.60 1019.72 1019.92 1020.04 1020.20 1020.52 1021.12 1021.28 1021.40 1021.64 1021.68 1021.72 1021.80 1021.88 1021.84 1021.88 1022.08 1022.64 1023.16 1023.80 1023.84 1023.56
1014.48 1014.56 1014.60 1014.56 1014.64 1014.68 1014.68 1014.72 1014.76 1014.76 1014.88 1014.88 1014.92 1015.08 1015.24 1015.48 1015.76 1015.76 1016.00 1016.12 1016.16 1016.32 1016.56 1016.72 1016.68 1016.80 1017.12 1017.44 1017.64 1017.64 1017.88 1018.08 1018.24 1018.36 1018.44 1018.68 1018.88 1019.08 1019.28 1019.48 1019.72 1019.88 1020.04 1020.16 1020.16 1020.20 1020.56 1021.00 1021.12 1021.40 1021.64 1021.96 1021.92 1022.04 1022.04 1022.08 1022.20 1022.36 1023.04 1023.60 1023.84 1023.80
1014.68 1014.68 1014.64 1014.56 1014.48 1014.52 1014.56 1014.68 1014.76 1014.76 1014.80 1015.00 1015.08 1015.20 1015.28 1015.48 1015.64 1015.76 1015.92 1016.04 1016.12 1016.24 1016.40 1016.60 1016.64 1016.64 1016.92 1017.16 1017.36 1017.52 1017.76 1018.00 1018.16 1018.24 1018.32 1018.56 1018.84 1019.04 1019.24 1019.36 1019.48 1019.60 1019.84 1020.08 1020.20 1020.24 1020.36 1020.56 1020.76 1021.12 1021.16 1021.48 1021.88 1022.20 1022.24 1022.48 1022.56 1022.60 1022.84 1022.96 1023.52 1023.80
1014.64 1014.64 1014.64 1014.56 1014.48 1014.44 1014.44 1014.56 1014.68 1014.72 1014.76 1014.84 1014.96 1015.12 1015.32 1015.40 1015.48 1015.64 1015.80 1015.84 1016.00 1016.08 1016.28 1016.48 1016.60 1016.60 1016.80 1017.08 1017.20 1017.36 1017.64 1017.92 1018.08 1018.16 1018.32 1018.52 1018.72 1018.88 1019.04 1019.20 1019.40 1019.60 1019.76 1019.96 1020.16 1020.28 1020.44 1020.60 1020.76 1020.92 1021.12 1021.20 1021.44 1021.52 1021.68 1022.16 1022.36 1022.44 1022.68 1023.24 1023.56 1023.80
1014.76 1014.64 1014.56 1014.48 1014.44 1014.40 1014.44 1014.48 1014.52 1014.64 1014.68 1014.60 1014.64 1014.84 1015.04 1015.24 1015.32 1015.44 1015.52 1015.68 1015.76 1016.00 1016.16 1016.32 1016.56 1016.64 1016.80 1016.92 1017.08 1017.28 1017.52 1017.84 1018.04 1018.20 1018.40 1018.44 1018.52 1018.64 1018.88 1019.12 1019.32 1019.52 1019.72 1019.84 1020.00 1020.16 1020.36 1020.56 1020.72 1020.84 1021.00 1021.12 1021.20 1021.28 1021.44 1021.44 1021.84 1022.08 1022.40 1022.84 1022.96 1023.56
1014.84 1014.72 1014.60 1014.36 1014.20 1014.20 1014.40 1014.48 1014.44 1014.44 1014.40 1014.32 1014.40 1014.52 1014.72 1015.00 1015.12 1015.28 1015.32 1015.52 1015.68 1015.88 1016.08 1016.36 1016.64 1016.68 1016.64 1016.72 1016.88 1017.20 1017.48 1017.72 1017.92 1018.08 1018.24 1018.44 1018.56 1018.64 1018.76 1018.96 1019.20 1019.40 1019.56 1019.68 1019.76 1019.92 1020.12 1020.24 1020.44 1020.64 1020.80 1021.00 1021.08 1021.24 1021.36 1021.52 1021.68 1022.04 1022.40 1022.60 1022.88 1023.48
1014.76 1014.56 1014.36 1014.12 1013.92 1014.04 1014.20 1014.28 1014.20 1014.08 1013.96 1013.96 1014.08 1014.28 1014.56 1014.84 1015.00 1015.08 1015.16 1015.32 1015.48 1015.64 1015.84 1016.08 1016.40 1016.52 1016.48 1016.56 1016.64 1016.80 1017.08 1017.40 1017.60 1017.84 1018.08 1018.28 1018.52 1018.64 1018.76 1018.96 1019.12 1019.28 1019.40 1019.48 1019.60 1019.72 1019.84 1020.08 1020.28 1020.36 1020.56 1020.88 1021.04 1021.12 1021.28 1021.40 1021.64 1021.88 1022.28 1022.64 1023.12 1023.24
1014.80 1014.56 1014.12 1013.76 1013.72 1013.88 1014.00 1014.00 1014.12 1014.20 1014.12 1014.04 1014.24 1014.48 1014.68 1014.84 1015.04 1015.20 1015.16 1015.24 1015.36 1015.48 1015.72 1015.88 1016.08 1016.28 1016.44 1016.48 1016.56 1016.72 1016.96 1017.28 1017.56 1017.76 1017.96 1018.20 1018.44 1018.64 1018.80 1018.96 1019.08 1019.16 1019.32 1019.44 1019.56 1019.76 1019.96 1020.08 1020.28 1020.40 1020.52 1020.60 1020.84 1021.04 1021.12 1021.32 1021.44 1021.68 1021.84 1022.08 1022.44 1022.84
1014.56 1014.20 1013.88 1013.88 1013.88 1013.80 1013.76 1013.76 1014.04 1014.56 1014.80 1014.76 1014.64 1014.68 1014.84 1014.92 1015.04 1015.12 1015.20 1015.20 1015.32 1015.48 1015.60 1015.76 1015.96 1016.16 1016.32 1016.36 1016.52 1016.72 1016.96 1017.20 1017.44 1017.68 1017.84 1018.04 1018.24 1018.52 1018.72 1018.92 1019.12 1019.20 1019.32 1019.44 1019.64 1019.80 1020.00 1020.12 1020.20 1020.28 1020.36 1020.60 1020.76 1020.88 1021.04 1021.20 1021.32 1021.52 1021.76 1021.92 1022.16 1022.40
1014.36 1014.16 1014.24 1014.20 1013.96 1013.96 1014.24 1014.28 1014.16 1014.40 1014.76 1014.84 1014.76 1014.76 1014.80 1014.88 1014.92 1014.96 1015.04 1015.12 1015.20 1015.36 1015.56 1015.76 1016.00 1016.08 1016.20 1016.28 1016.40 1016.64 1016.88 1017.12 1017.36 1017.56 1017.76 1017.92 1018.08 1018.28 1018.52 1018.72 1018.88 1019.08 1019.28 1019.44 1019.56 1019.76 1020.00 1020.16 1020.20 1020.28 1020.40 1020.48 1020.52 1020.68 1020.96 1021.12 1021.28 1021.48 1021.72 1021.92 1022.04 1022.16
Wind_Speed
7 7 7 6 6 7 9 14 11 13 13 12 12 13 13 15 14 14 13 12 10 7 6 5 7 7 11 5 8 9 7 6 5 7 9 10 11 10 9 9 9 10 10 11 12 14 13 12 12 12 12 11 11 6 5 5 5 4 4 4 4 4
7 8 7 6 5 6 7 9 7 7 7 9 10 11 8 6 8 6 10 9 5 5 4 5 6 9 8 6 7 9 7 6 5 6 8 9 10 9 9 9 10 10 11 9 13 8 8 10 12 11 11 11 6 5 5 5 5 4 4 4 4 6
7 8 8 7 5 6 6 5 5 6 6 8 7 6 4 5 4 5 5 5 5 4 4 4 5 7 8 10 7 9 8 6 6 6 7 8 9 9 10 10 10 10 11 11 7 6 6 6 6 11 10 6 5 5 5 5 5 4 3 3 3 7
9 8 7 6 5 5 5 5 5 5 6 6 5 6 5 5 5 5 5 4 5 4 4 4 9 12 11 7 6 6 8 6 6 6 6 5 8 9 11 11 9 9 7 5 6 6 6 6 6 6 5 5 5 5 5 4 4 4 3 2 1 8
7 7 7 6 6 5 5 5 5 6 6 6 6 5 5 5 5 5 5 5 4 4 3 2 3 4 4 5 4 3 3 2 3 4 5 4 4 5 5 5 4 5 5 6 6 6 6 6 6 6 5 5 5 4 4 4 4 3 3 4 4 8
7 6 6 6 5 7 7 6 6 6 5 5 5 5 5 5 5 5 5 4 4 5 3 3 2 4 4 4 4 3 3 3 3 3 3 4 4 4 5 5 5 6 5 5 6 5 5 6 6 6 5 5 5 4 4 4 3 3 3 4 5 8
6 6 6 5 6 5 5 5 5 5 6 6 4 4 4 5 5 5 5 4 5 4 4 4 4 4 4 4 4 3 4 3 3 3 3 4 4 4 5 5 5 5 5 6 6 5 5 5 6 6 5 5 4 4 4 4 3 3 3 3 4 8
6 6 6 5 6 6 6 6 6 7 6 7 6 5 3 4 5 3 4 3 4 4 4 5 4 5 4 3 4 3 3 3 3 2 3 3 4 4 4 4 5 5 5 6 6 6 5 5 5 5 6 5 4 4 4 3 3 3 3 3 3 6
6 8 5 6 7 4 6 6 6 6 6 7 6 5 4 5 4 4 4 4 5 5 4 3 5 5 4 4 3 3 3 3 3 2 3 3 3 4 4 4 5 5 5 5 6 6 6 5 5 5 5 5 5 4 4 4 4 4 3 3 3 5
5 5 4 5 5 6 7 7 7 6 7 7 4 5 5 5 5 3 2 1 2 3 6 5 5 4 6 5 4 3 3 3 3 3 3 4 3 4 4 4 4 5 6 5 6 5 6 6 6 5 5 5 5 4 4 4 4 4 3 3 4 4
4 5 5 5 5 5 4 7 6 6 7 6 7 6 4 6 6 5 5 6 5 4 5 5 6 6 6 5 4 4 4 3 3 4 3 3 4 4 3 4 4 4 5 5 5 5 6 6 5 5 5 5 5 4 4 4 4 4 4 4 4 3
6 7 6 5 4 5 4 6 7 7 7 7 9 6 4 6 7 7 9 8 7 5 5 5 6 6 6 6 5 4 4 4 5 4 3 3 3 3 3 2 3 4 5 6 5 5 5 6 6 5 5 5 4 4 4 4 4 4 4 4 4 3
6 6 6 6 5 4 3 5 6 7 8 9 9 7 6 7 7 6 5 6 7 7 6 6 6 6 6 5 5 5 5 5 4 4 3 3 4 3 3 3 4 5 6 6 6 5 5 5 6 5 5 5 5 5 4 4 4 4 4 4 4 3
6 6 6 5 5 5 5 5 5 5 7 8 8 7 6 6 7 7 7 6 6 7 7 6 6 5 4 4 3 5 5 5 4 4 3 4 4 4 3 4 4 5 5 5 6 5 6 7 6 6 6 5 5 5 5 5 4 4 4 4 3 4
6 6 7 6 7 6 6 6 5 6 6 7 8 7 7 6 6 7 8 8 8 8 7 6 5 4 4 5 4 5 5 5 5 4 4 4 5 4 4 4 4 6 5 6 5 6 6 6 7 7 6 5 5 5 5 5 4 4 4 4 4 3
6 8 7 7 6 6 6 5 5 5 7 8 7 8 8 7 7 6 6 5 5 5 4 4 5 4 4 4 4 5 6 5 4 4 4 5 5 5 5 5 4 6 7 6 7 6 6 8 7 7 6 5 6 5 4 5 4 4 3 3 3 3
7 7 8 8 7 6 6 6 6 6 5 6 6 6 6 5 5 7 5 4 3 3 3 4 4 4 5 5 5 4 6 5 4 5 5 5 5 5 6 6 4 3 5 7 8 8 7 8 8 7 7 6 5 5 4 4 4 4 4 4 3 2
6 6 7 7 7 6 6 5 4 3 4 5 5 5 5 6 5 4 4 4 4 3 4 4 4 4 5 5 4 4 5 5 4 5 5 6 6 5 5 7 6 4 4 7 8 8 9 7 7 8 8 7 6 5 5 5 4 4 4 4 3 4
6 5 5 5 4 3 2 2 2 3 3 3 3 4 4 4 4 4 4 3 4 3 2 3 4 5 5 4 4 5 5 6 5 5 6 6 6 6 5 5 8 6 6 5 7 8 8 7 7 6 6 6 6 6 4 4 4 4 3 3 4 3
4 4 2 0 1 3 4 3 3 1 2 3 3 3 4 4 5 4 4 4 5 5 6 6 5 5 4 4 4 5 6 5 4 5 6 7 6 6 8 8 7 10 10 8 6 7 7 8 7 7 7 6 4 3 4 5 4 3 2 2 2 3
3 4 4 3 2 1 3 3 1 3 5 3 2 3 4 5 5 4 4 6 7 5 6 6 6 7 7 6 5 3 4 4 4 5 6 7 7 7 6 8 7 7 12 11 7 5 6 7 9 5 6 5 5 4 4 4 5 3 2 2 2 2
5 5 4 3 3 4 4 4 3 4 4 2 3 4 4 5 6 6 6 2 3 5 5 6 6 6 7 7 6 7 6 8 6 4 4 6 6 7 8 8 8 7 5 10 7 7 7 8 3 4 5 4 5 5 4 4 3 2 2 2 2 4
5 6 5 4 4 4 2 3 4 2 4 2 2 4 4 5 7 5 4 6 5 3 2 4 5 5 6 7 7 7 6 5 5 6 6 6 7 8 8 9 9 9 8 3 5 6 7 1 6 5 5 5 3 2 1 2 2 3 3 2 2 3
2 4 5 5 5 5 5 3 3 5 5 5 3 5 5 6 6 6 7 4 4 4 1 2 3 5 5 6 7 7 5 6 6 6 7 7 7 7 7 7 7 8 10 9 5 6 2 3 7 10 6 2 3 3 2 3 2 2 3 2 3 3
1 1 1 4 5 6 6 5 4 4 5 5 5 6 6 5 6 6 4 4 4 5 6 4 2 2 3 5 5 4 5 5 6 5 5 7 7 8 8 7 8 9 9 11 8 5 5 3 6 2 6 5 3 2 3 2 3 2 2 2 3 4
2 2 2 2 5 6 6 7 6 6 6 5 5 6 7 6 6 7 8 7 7 8 8 8 8 7 6 5 6 5 5 5 4 5 5 6 6 6 7 7 8 9 8 8 11 8 6 3 3 2 1 2 4 4 5 5 4 2 2 1 3 3
3 2 3 4 5 5 6 6 7 7 6 7 7 5 5 7 8 7 5 7 6 5 6 6 5 6 6 5 4 3 5 6 6 6 5 5 6 7 7 7 6 6 7 7 7 9 9 7 3 3 1 2 1 1 7 8 5 4 4 1 1 3
4 4 4 4 5 5 5 4 5 5 6 7 8 7 7 7 7 7 7 7 7 7 7 6 5 5 5 5 5 5 4 5 6 5 5 6 6 5 5 4 5 5 6 7 8 9 9 8 9 5 2 1 2 4 4 3 6 6 5 6 3 3
4 4 4 5 5 5 4 4 5 4 4 4 5 6 6 6 6 6 6 6 7 7 6 7 7 7 7 7 6 6 5 5 6 6 5 5 4 5 7 7 6 6 7 6 6 5 8 8 6 6 5 2 4 4 3 3 5 3 3 5 4 3
3 3 4 5 6 7 6 5 6 6 6 5 4 4 6 8 6 6 7 6 6 5 6 6 6 8 7 8 8 6 5 6 6 6 5 5 5 6 5 6 7 7 7 7 5 6 7 6 6 5 5 6 4 4 4 3 2 4 4 3 5 6
4 3 3 4 5 7 6 6 7 7 6 6 7 7 6 8 7 7 7 7 8 7 6 7 6 6 6 6 6 6 6 5 5 5 5 5 6 7 6 6 6 6 7 8 6 6 5 5 5 5 6 6 6 8 6 5 6 4 4 4 6 5
2 4 4 5 6 6 6 7 7 7 7 8 8 8 10 9 9 8 8 8 8 6 6 6 6 6 7 7 7 6 6 5 5 6 6 6 5 5 5 5 6 6 6 6 6 6 6 7 7 5 6 5 6 6 4 4 6 5 6 6 7 7
4 3 5 7 9 8 6 7 8 9 9 8 9 9 9 8 8 8 8 8 8 7 6 7 7 7 8 10 8 7 6 6 5 5 6 6 5 5 5 5 5 6 6 7 7 7 6 7 8 8 7 5 4 5 4 3 5 6 5 6 8 8
3 6 7 8 9 8 7 7 8 10 10 9 9 8 7 7 7 7 7 8 7 7 7 8 8 8 7 8 7 7 7 6 6 6 6 6 6 6 5 5 5 6 6 5 5 7 6 6 6 6 5 5 4 5 4 5 6 7 7 8 9 9
3 5 9 11 9 8 7 7 7 7 7 6 5 4 5 5 5 6 6 7 6 6 6 6 7 6 6 7 7 6 6 6 6 6 5 6 6 6 6 5 5 6 5 5 6 5 5 6 6 6 6 6 5 5 5 5 7 6 7 8 9 10
6 8 9 8 7 7 8 7 4 3 5 4 1 1 2 2 4 5 5 7 6 5 5 5 5 6 6 7 7 7 6 6 6 6 6 6 6 6 7 6 5 5 6 4 6 6 5 6 6 7 6 5 6 6 5 6 5 6 6 6 7 7
7 8 6 8 9 8 5 3 1 1 3 4 3 4 5 5 6 6 5 5 6 5 4 5 5 5 7 6 7 7 7 6 6 6 6 6 6 6 6 6 6 6 5 5 5 7 5 6 6 6 5 7 6 6 5 5 5 5 5 6 7 7
Wind_Direction
117 117 118 122 133 142 151 150 148 149 143 142 140 143 151 152 152 151 150 147 139 131 136 139 131 131 126 124 130 141 150 152 129 115 113 115 116 114 111 105 99 94 98 107 120 124 119 119 119 119 118 112 98 86 85 80 74 62 49 40 58 83
123 127 132 138 149 156 157 151 143 143 137 140 143 149 148 139 148 136 145 142 126 134 125 128 139 140 127 142 146 147 153 153 134 115 112 110 114 116 111 105 96 96 100 103 116 116 114 115 115 115 108 97 85 83 77 73 70 61 45 38 51 87
136 142 143 148 153 155 145 127 129 126 135 138 147 127 120 125 100 125 118 127 123 105 122 132 137 148 134 149 157 153 156 153 137 120 111 106 111 112 108 100 96 92 99 103 107 113 111 107 104 102 92 88 85 82 83 81 80 74 62 51 56 113
152 154 150 148 144 134 124 117 122 124 123 123 118 116 120 115 110 116 120 113 112 119 130 155 155 150 145 138 159 153 158 152 141 127 107 94 102 110 104 95 92 87 89 105 114 112 108 92 85 91 98 98 94 96 94 99 97 92 77 56 135 116
154 154 149 148 145 139 131 135 132 134 134 129 121 118 117 109 115 111 119 120 112 121 111 84 100 118 109 127 142 138 118 77 64 71 91 89 76 82 84 91 77 76 89 116 120 120 114 107 103 107 112 113 107 105 103 101 106 102 106 116 126 131
159 156 156 150 143 150 149 144 141 138 123 112 115 122 117 119 113 110 112 117 107 112 137 106 113 131 118 124 136 129 121 108 82 90 93 96 88 94 90 93 97 90 89 105 118 113 113 120 122 116 116 114 115 112 110 104 96 96 115 110 125 119
160 159 157 145 143 147 142 126 114 110 116 115 102 99 93 90 79 93 108 120 117 150 167 143 147 141 136 137 142 149 144 142 141 118 99 115 94 83 90 94 97 99 101 108 108 105 108 112 121 121 117 120 123 115 109 99 89 93 79 94 111 114
161 164 155 150 154 155 141 129 128 138 119 127 131 119 100 94 91 98 85 94 127 196 153 150 149 149 153 147 159 164 150 146 142 136 105 118 114 89 90 99 112 110 104 109 123 124 117 113 115 121 121 120 110 100 97 92 92 92 87 89 85 104
169 167 161 158 156 147 138 135 145 132 125 131 130 129 135 128 103 107 116 147 162 166 150 163 160 161 149 161 157 158 166 153 157 176 134 114 121 114 100 116 121 122 115 117 124 130 128 119 118 118 123 115 111 111 110 106 98 88 77 68 80 115
167 157 154 146 141 154 159 152 143 132 130 132 123 122 151 135 94 93 56 351 256 201 158 170 171 165 164 166 169 159 164 172 182 214 169 160 132 122 132 125 125 125 122 130 133 143 132 128 123 120 113 116 118 120 120 113 100 96 91 86 86 112
142 148 160 154 153 146 152 141 134 131 122 131 131 139 161 111 126 130 154 203 222 217 162 168 184 175 168 164 172 170 191 184 200 213 209 154 119 128 154 168 160 140 117 141 149 145 137 131 130 127 125 124 122 116 104 102 101 104 99 95 84 79
164 161 159 139 135 138 143 129 134 135 135 133 130 148 156 142 154 181 186 187 181 182 174 187 190 182 167 163 174 186 187 197 214 213 205 148 124 123 146 134 106 99 110 124 128 121 127 129 129 125 127 118 114 107 115 112 112 104 96 88 82 68
164 154 145 139 142 131 136 129 144 141 136 139 140 160 187 168 174 188 203 194 179 177 176 183 196 186 169 168 172 180 193 211 214 200 192 139 117 112 111 94 73 90 93 104 108 103 100 99 119 126 118 123 119 123 127 109 97 93 92 90 83 87
159 148 143 134 140 144 155 158 154 134 133 134 141 171 190 186 186 168 184 203 191 178 181 174 178 180 163 147 177 193 203 210 211 197 167 138 131 141 123 102 99 91 93 99 107 115 119 119 122 120 117 121 117 126 121 112 99 103 100 88 93 84
156 153 146 154 158 168 178 172 157 135 128 152 159 166 180 186 187 180 176 195 191 189 172 160 157 162 147 136 217 249 218 215 195 185 170 155 144 150 141 131 124 95 86 94 100 110 119 127 131 130 128 128 127 119 111 114 103 99 94 95 89 93
165 162 159 165 174 173 175 177 155 161 157 168 161 164 179 186 188 187 185 184 186 187 156 142 137 144 159 154 182 251 250 229 189 161 161 154 144 150 150 136 128 130 116 106 111 109 119 127 128 131 133 130 131 122 113 115 113 109 104 91 90 93
172 167 169 173 177 176 164 179 175 170 164 177 167 164 176 172 185 182 168 172 166 176 148 133 132 146 165 174 172 221 263 244 162 159 159 151 145 150 148 133 103 57 118 128 122 117 110 114 123 127 129 129 129 127 120 121 125 126 111 93 96 102
176 181 178 178 184 179 188 172 156 147 185 182 171 169 164 161 164 162 152 165 169 186 165 144 142 160 182 185 160 184 235 237 172 162 147 142 141 139 142 133 106 73 107 124 123 124 122 108 110 116 121 125 123 117 117 122 120 114 120 121 127 128
173 185 189 183 181 164 119 85 103 136 178 184 164 155 142 144 140 134 141 157 147 191 124 173 156 168 175 171 173 190 198 220 182 158 139 131 126 124 119 106 116 106 79 79 119 124 123 113 110 106 102 112 114 112 110 105 93 107 126 148 156 148
174 178 170 122 134 127 117 153 180 214 224 194 153 152 146 132 124 124 135 140 151 174 182 186 176 158 158 170 179 200 197 210 184 152 139 132 136 144 143 119 116 119 115 107 98 117 121 115 99 92 88 81 81 88 96 102 98 96 101 114 125 140
147 148 166 186 203 100 93 66 348 243 239 179 155 134 134 132 133 139 168 194 193 186 179 168 165 159 164 177 185 196 198 132 222 160 147 151 145 137 132 127 122 125 126 120 118 124 125 123 118 95 83 81 76 75 100 97 112 113 108 66 49 78
149 147 159 174 142 97 115 161 226 224 211 172 169 178 157 140 139 148 195 176 189 205 180 170 172 168 159 161 167 195 179 171 184 153 131 124 126 129 128 126 126 113 123 134 135 145 143 129 74 132 124 89 54 45 62 105 127 121 127 148 163 109
150 143 131 116 107 127 147 183 188 200 152 87 110 140 140 132 120 180 171 177 177 193 188 176 172 160 163 170 177 199 178 166 164 142 130 128 131 136 146 144 144 135 130 108 123 150 146 38 134 124 104 110 145 123 108 109 114 121 116 127 145 140
131 143 139 146 138 146 149 176 186 169 153 144 141 121 111 105 100 163 195 174 165 163 209 273 212 186 174 190 190 190 164 174 163 158 149 144 144 146 150 148 140 141 138 134 145 163 165 192 145 140 144 173 152 146 153 213 141 68 143 149 135 133
46 138 108 157 156 155 148 141 139 127 124 109 110 130 122 98 129 187 173 160 158 161 169 181 256 254 237 200 208 185 167 167 155 154 152 148 155 163 166 159 152 149 157 149 154 153 190 202 174 360 138 126 68 143 221 128 130 84 96 136 130 149
140 156 166 181 177 176 181 164 156 150 157 153 151 151 162 153 159 186 186 177 169 177 172 172 171 194 200 184 198 203 147 138 168 159 169 165 149 141 158 163 173 161 154 163 153 159 166 227 186 81 32 128 163 167 173 165 155 192 34 82 143 160
186 177 199 191 193 193 196 192 183 177 172 173 168 171 158 148 160 203 158 171 175 172 183 186 176 180 182 181 171 207 162 162 161 172 168 153 156 166 169 175 161 160 160 152 150 161 168 170 156 289 35 68 97 175 150 143 185 124 159 112 121 103
190 170 189 190 198 209 206 208 196 194 180 178 179 169 161 154 160 182 180 169 174 180 175 182 176 188 162 135 147 204 179 156 157 169 165 175 169 159 152 149 164 158 146 164 168 164 166 165 175 188 173 79 86 124 108 74 145 163 146 155 132 77
203 177 179 187 196 210 214 210 208 195 195 193 175 159 149 143 151 167 173 160 185 182 178 178 185 181 161 158 190 192 183 164 159 171 172 159 158 160 165 159 157 153 167 166 178 167 157 176 174 163 141 68 90 109 71 58 119 82 136 146 133 140
206 199 189 193 196 201 206 201 202 207 194 182 164 148 152 149 156 165 173 174 192 179 170 166 169 179 170 165 180 187 188 175 166 168 170 173 164 173 175 172 173 173 163 159 163 163 178 170 165 147 155 144 129 110 73 75 61 109 76 58 153 155
179 168 206 222 209 204 193 196 208 209 201 184 179 168 162 164 161 169 176 185 196 187 161 169 165 167 167 172 184 183 185 179 162 163 166 176 187 184 183 177 164 158 165 165 169 156 139 144 149 151 156 160 158 164 164 168 179 161 141 135 135 143
199 181 195 227 235 220 196 200 207 208 207 204 187 182 183 176 170 178 178 184 193 165 168 165 166 167 168 180 182 183 179 168 165 162 177 189 193 187 170 155 155 167 172 166 152 154 150 149 158 156 169 169 170 177 155 154 163 146 143 151 143 146
206 205 207 228 231 223 203 202 203 204 210 207 199 194 188 183 180 180 177 181 183 181 173 171 169 174 174 174 172 167 170 174 173 183 176 177 180 174 162 159 161 165 164 170 172 166 168 173 167 172 184 180 163 170 175 137 125 126 113 133 141 138
276 195 213 230 232 225 208 206 208 208 209 206 203 192 188 185 187 184 178 180 183 185 182 181 170 180 172 168 167 171 171 175 178 177 178 174 163 164 162 167 169 167 180 178 161 174 177 166 175 179 152 155 172 168 165 150 134 136 140 136 149 147
291 238 227 224 226 224 214 213 224 230 228 224 201 173 190 192 185 183 179 182 188 185 186 185 177 163 155 165 165 163 170 171 175 178 173 168 158 156 163 165 179 182 172 164 173 165 159 161 167 169 171 174 159 163 160 150 147 149 155 157 153 156
234 239 241 246 243 231 224 215 227 278 296 312 342 168 181 186 192 191 185 185 184 179 189 181 163 153 165 163 165 169 167 170 168 163 170 169 161 156 162 164 165 169 169 158 161 168 165 166 177 177 174 154 153 171 155 152 155 152 161 158 154 159
243 255 264 267 263 259 296 291 125 269 297 276 258 216 199 197 195 183 177 181 175 166 162 172 169 170 166 170 168 170 170 168 165 164 161 165 164 158 160 161 166 165 162 157 158 167 157 172 179 172 160 173 172 158 155 144 138 146 146 159 166 165